Weather History for Henderson, NV

Change the Weather History Date:

Saturday, August 31, 2013

  Actual Average (KLAS) Record (KLAS)
Temperature  
Mean Temperature 82 °F 88 °F  
Max Temperature 90 °F 99 °F 112 °F (1948)
Min Temperature 73 °F 77 °F 55 °F (1942)
Degree Days  
Heating Degree Days 0 0  
Month to date heating degree days 0  
Since 1 June heating degree days 1  
Since 1 July heating degree days 0  
Cooling Degree Days 16 23  
Month to date cooling degree days 795  
Year to date cooling degree days 2849  
Since 1 June cooling degree days 2299  
Growing Degree Days 32 (Base 50)    
Moisture  
Dew Point 67 °F    
Average Humidity 64    
Maximum Humidity 79    
Minimum Humidity 43    
Precipitation  
Precipitation 0.51 in 0.01 in 0.07 in (1938)
Month to date precipitation 0.33  
Year to date precipitation 2.81  
Snow  
Snow 0.00 in 0.00 in 0.00 in ()
Month to date snowfall 0.0  
Since 1 June snowfall 0.0  
Since 1 July snowfall 0.0  
Snow Depth -    
Sea Level Pressure  
Sea Level Pressure 29.93 in    
Wind  
Wind Speed 8 mph (South)    
Max Wind Speed 22 mph    
Max Gust Speed 40 mph    
Visibility 9 miles    
Events Rain , Thunderstorm    
T = Trace of Precipitation, MM = Missing Value Source: NWS Daily Summary

Daily Weather History Graph

Daily Weather History Graph

Search for Another Location

Airport:

Trip Planner

Search our weather history database for the weather conditions in past years. The results will help you decide how hot, cold, wet, or windy it might be!

Date:

Astronomy

Aug. 31, 2013 Rise Set
Actual Time 6:11 AM PDT 7:09 PM PDT
Civil Twilight 5:45 AM PDT 7:35 PM PDT
Nautical Twilight 5:14 AM PDT 8:06 PM PDT
Astronomical Twilight 4:42 AM PDT 8:38 PM PDT
Moon 1:49 AM PDT (8/31) 4:05 PM PDT (8/31)
Length of Visible Light 13h 49m
Length of Day
12h 57m
Waning Crescent, 20% of the Moon is Illuminated
Aug 31
Waning Crescent
Sep 5
New
Sep 12
First Quarter
Sep 19
Full
Sep 26
Last Quarter

Hourly Weather History & Observations

Time (PDT) Temp. Heat Index Dew Point Humidity Pressure Visibility Wind Dir Wind Speed Gust Speed Precip Events Conditions
12:56 AM 81.9 °F 83.9 °F 65.8 °F 58% 29.93 in 10.0 mi SSE 9.2 mph - N/A   Clear
1:56 AM 79.9 °F - 65.8 °F 62% 29.92 in 10.0 mi South 8.1 mph - N/A   Clear
2:56 AM 79.0 °F - 65.8 °F 64% 29.92 in 10.0 mi SSW 5.8 mph - N/A   Clear
3:56 AM 79.0 °F - 65.8 °F 64% 29.92 in 10.0 mi SSW 8.1 mph - N/A   Clear
4:56 AM 77.9 °F - 65.8 °F 66% 29.93 in 10.0 mi SSW 4.6 mph - N/A   Clear
5:56 AM 77.0 °F - 65.8 °F 68% 29.94 in 10.0 mi South 4.6 mph - N/A   Clear
6:56 AM 75.9 °F - 65.8 °F 71% 29.96 in 10.0 mi South 5.8 mph - N/A   Clear
7:56 AM 79.0 °F - 65.8 °F 64% 29.96 in 10.0 mi SSW 4.6 mph - N/A   Clear
8:56 AM 81.9 °F 84.2 °F 66.9 °F 60% 29.97 in 10.0 mi East 3.5 mph - N/A   Clear
9:56 AM 84.9 °F 87.6 °F 66.9 °F 55% 29.97 in 10.0 mi Variable 3.5 mph - N/A   Clear
10:56 AM 88.0 °F 90.3 °F 65.8 °F 48% 29.95 in 10.0 mi Calm Calm - N/A   Clear
11:56 AM 90.9 °F 93.1 °F 65.8 °F 43% 29.92 in 10.0 mi NE 8.1 mph - N/A   Partly Cloudy
12:56 PM 90.9 °F 94.0 °F 66.9 °F 45% 29.90 in 10.0 mi NNE 10.4 mph - N/A   Clear
1:43 PM 80.6 °F 83.9 °F 69.8 °F 70% 29.99 in 8.0 mi SW 10.4 mph - 0.00 in Rain Heavy Rain
1:48 PM 78.8 °F - 69.8 °F 74% 30.00 in 1.8 mi South 4.6 mph - 0.04 in Rain Heavy Rain
1:56 PM 77.9 °F - 68.0 °F 71% 29.92 in 1.8 mi WSW 21.9 mph 33.4 mph 0.07 in Rain Heavy Rain
1:58 PM 78.8 °F - 66.2 °F 65% 30.00 in 10.0 mi WSW 9.2 mph 33.4 mph 0.01 in Rain Light Rain
2:13 PM 75.2 °F - 66.2 °F 73% 29.99 in 10.0 mi South 9.2 mph 40.3 mph 0.20 in Rain Light Rain
2:20 PM 73.4 °F - 66.2 °F 78% 29.99 in 10.0 mi WSW 10.4 mph - 0.31 in Rain Light Rain
2:56 PM 74.8 °F - 68.0 °F 79% 29.91 in 10.0 mi SSE 11.5 mph 18.4 mph 0.43 in Rain Light Rain
3:56 PM 79.0 °F - 68.9 °F 71% 29.88 in 10.0 mi South 12.7 mph - 0.01 in Rain Light Rain
4:56 PM 83.8 °F 87.5 °F 68.9 °F 61% 29.86 in 10.0 mi SSE 8.1 mph - 0.00 in Rain Light Rain
5:56 PM 84.9 °F 88.2 °F 68.0 °F 57% 29.85 in 10.0 mi South 9.2 mph - 0.00 in Rain Light Rain
6:56 PM 83.8 °F 86.5 °F 66.9 °F 57% 29.86 in 10.0 mi South 6.9 mph - 0.00 in Rain Light Rain
7:56 PM 82.9 °F 86.3 °F 68.9 °F 62% 29.89 in 10.0 mi SSE 6.9 mph - 0.00 in Rain Light Rain
8:56 PM 79.9 °F - 68.9 °F 69% 29.90 in 10.0 mi SE 5.8 mph - 0.00 in Rain Light Rain
9:56 PM 79.9 °F - 64.9 °F 60% 29.92 in 10.0 mi NE 10.4 mph - 0.00 in Rain Light Rain
10:29 PM 78.8 °F - 64.4 °F 61% 30.00 in 10.0 mi Variable 5.8 mph - 0.00 in Rain , Thunderstorm Light Thunderstorms and Rain
10:56 PM 77.9 °F - 65.8 °F 66% 29.93 in 10.0 mi Calm Calm - 0.00 in Rain , Thunderstorm Light Thunderstorms and Rain
11:56 PM 75.9 °F - 68.9 °F 79% 29.92 in 10.0 mi South 11.5 mph - 0.00 in Rain Light Rain